ARG1842 SAAR-SABE

Flight info

Callsign ARG1842
Flight time 0h 33m
Altitude 23000
Route VASAL2C VASAL W20 MULTA W24 SNT SNT9R
Aircraft B738/M-SDE2E3FGHIRWXY/LB1

Departure

Time 2026-04-30 14:43
Airport Rosario Islas Malvinas International Airport (SAAR)

Arrival

Time 2026-04-30 15:17
Airport Aeroparque Jorge Newbery (SABE)
Time Latitude Longitude Altitude Speed Heading
2026-04-30 13:19 -32.91679 -60.78157 94 ft 0 kts 111°
2026-04-30 14:36 -32.91679 -60.78158 94 ft 1 kts 111°
2026-04-30 14:36 -32.91673 -60.78177 94 ft 3 kts 114°
2026-04-30 14:36 -32.91664 -60.78199 94 ft 3 kts 118°
2026-04-30 14:37 -32.91654 -60.78219 96 ft 3 kts 127°
2026-04-30 14:37 -32.91640 -60.78237 94 ft 3 kts 147°
2026-04-30 14:37 -32.91625 -60.78245 94 ft 2 kts 191°
2026-04-30 14:37 -32.91621 -60.78244 94 ft 0 kts 201°
2026-04-30 14:40 -32.91662 -60.78262 95 ft 9 kts 201°
2026-04-30 14:40 -32.91724 -60.78291 97 ft 9 kts 204°
2026-04-30 14:41 -32.91757 -60.78355 95 ft 10 kts 254°
2026-04-30 14:41 -32.91775 -60.78450 98 ft 14 kts 259°
2026-04-30 14:41 -32.91789 -60.78578 97 ft 15 kts 284°
2026-04-30 14:41 -32.91760 -60.78628 93 ft 3 kts 311°
2026-04-30 14:42 -32.91758 -60.78629 94 ft 0 kts 313°
2026-04-30 14:42 -32.91737 -60.78658 95 ft 13 kts 311°
2026-04-30 14:42 -32.91620 -60.78743 95 ft 24 kts 345°
2026-04-30 14:43 -32.91455 -60.78717 97 ft 26 kts 10°
2026-04-30 14:43 -32.91066 -60.78628 101 ft 94 kts 10°
2026-04-30 14:43 -32.90204 -60.78429 103 ft 154 kts 11°
2026-04-30 14:43 -32.89103 -60.78175 714 ft 160 kts 12°
2026-04-30 14:44 -32.88018 -60.77920 1581 ft 157 kts 12°
2026-04-30 14:44 -32.86916 -60.77677 2241 ft 172 kts 11°
2026-04-30 14:44 -32.85628 -60.77379 2528 ft 201 kts 12°
2026-04-30 14:44 -32.84335 -60.76620 2735 ft 224 kts 46°
2026-04-30 14:45 -32.83640 -60.74930 3171 ft 237 kts 79°
2026-04-30 14:45 -32.83811 -60.72900 3471 ft 262 kts 110°
2026-04-30 14:45 -32.84910 -60.71150 4134 ft 275 kts 141°
2026-04-30 14:45 -32.86622 -60.70103 4948 ft 278 kts 158°
2026-04-30 14:46 -32.88455 -60.69286 5724 ft 283 kts 160°
2026-04-30 14:46 -32.90293 -60.68498 6525 ft 285 kts 160°
2026-04-30 14:46 -32.92172 -60.67683 7297 ft 288 kts 160°
2026-04-30 14:46 -32.94071 -60.66844 8091 ft 292 kts 159°
2026-04-30 14:47 -32.95981 -60.65983 8909 ft 294 kts 159°
2026-04-30 14:47 -32.97883 -60.65114 9744 ft 296 kts 159°
2026-04-30 14:47 -32.99837 -60.64211 10446 ft 306 kts 159°
2026-04-30 14:47 -33.01885 -60.63260 10640 ft 331 kts 160°
2026-04-30 14:48 -33.04099 -60.62226 11035 ft 348 kts 160°
2026-04-30 14:48 -33.06377 -60.61157 11743 ft 353 kts 160°
2026-04-30 14:48 -33.08660 -60.60083 12543 ft 355 kts 161°
2026-04-30 14:48 -33.10985 -60.58988 13314 ft 359 kts 161°
2026-04-30 14:49 -33.13310 -60.57893 14025 ft 365 kts 162°
2026-04-30 14:49 -33.15690 -60.56769 14772 ft 369 kts 162°
2026-04-30 14:49 -33.18096 -60.55634 15500 ft 374 kts 163°
2026-04-30 14:49 -33.20539 -60.54480 16204 ft 379 kts 163°
2026-04-30 14:50 -33.25485 -60.52143 17558 ft 388 kts 165°
2026-04-30 14:50 -33.28027 -60.50940 18218 ft 393 kts 165°
2026-04-30 14:51 -33.33143 -60.48514 19490 ft 401 kts 164°
2026-04-30 14:51 -33.35696 -60.47038 20136 ft 410 kts 158°
2026-04-30 14:51 -33.40658 -60.43564 21336 ft 420 kts 156°
2026-04-30 14:52 -33.43178 -60.41755 21873 ft 424 kts 156°
2026-04-30 14:52 -33.48309 -60.38102 22964 ft 430 kts 156°
2026-04-30 14:52 -33.50871 -60.36292 23007 ft 425 kts 156°
2026-04-30 14:53 -33.55983 -60.32706 23036 ft 428 kts 157°
2026-04-30 14:53 -33.58563 -60.30899 23030 ft 428 kts 157°
2026-04-30 14:54 -33.63665 -60.27320 23028 ft 426 kts 157°
2026-04-30 14:54 -33.68805 -60.23708 23029 ft 427 kts 157°
2026-04-30 14:55 -33.73925 -60.20105 23033 ft 427 kts 157°
2026-04-30 14:55 -33.76500 -60.18292 23034 ft 427 kts 157°
2026-04-30 14:55 -33.81477 -60.14757 23014 ft 411 kts 155°
2026-04-30 14:56 -33.85776 -60.10027 23032 ft 430 kts 133°
2026-04-30 14:56 -33.89159 -60.04083 22318 ft 430 kts 129°
2026-04-30 14:57 -33.90781 -60.01071 21867 ft 426 kts 128°
2026-04-30 14:57 -33.93993 -59.95150 20959 ft 419 kts 129°
2026-04-30 14:58 -33.97198 -59.89341 20044 ft 413 kts 129°
2026-04-30 14:58 -33.98790 -59.86471 19583 ft 409 kts 129°
2026-04-30 14:58 -34.01927 -59.80819 18679 ft 403 kts 129°
2026-04-30 14:59 -34.05034 -59.75217 17788 ft 398 kts 129°
2026-04-30 15:00 -34.09622 -59.66989 16439 ft 391 kts 128°
2026-04-30 15:00 -34.12590 -59.61576 15587 ft 383 kts 128°
2026-04-30 15:01 -34.15509 -59.56266 14730 ft 376 kts 128°
2026-04-30 15:01 -34.16474 -59.54513 14441 ft 374 kts 128°
2026-04-30 15:01 -34.19800 -59.48468 13440 ft 366 kts 127°
2026-04-30 15:02 -34.21193 -59.45934 13024 ft 362 kts 127°
2026-04-30 15:02 -34.22045 -59.44199 12828 ft 360 kts 117°
2026-04-30 15:03 -34.23306 -59.37608 12239 ft 348 kts 102°
2026-04-30 15:03 -34.24118 -59.31905 11444 ft 344 kts 102°
2026-04-30 15:04 -34.24952 -59.26216 10623 ft 340 kts 102°
2026-04-30 15:04 -34.26162 -59.18150 10169 ft 311 kts 102°
2026-04-30 15:05 -34.27300 -59.10631 9420 ft 301 kts 101°
2026-04-30 15:06 -34.28046 -59.05684 8820 ft 298 kts 101°
2026-04-30 15:06 -34.28782 -59.00790 8193 ft 294 kts 101°
2026-04-30 15:07 -34.29513 -58.95919 7707 ft 288 kts 100°
2026-04-30 15:07 -34.30229 -58.91135 6999 ft 290 kts 100°
2026-04-30 15:08 -34.30932 -58.86416 6439 ft 288 kts 101°
2026-04-30 15:08 -34.31966 -58.79472 5537 ft 285 kts 100°
2026-04-30 15:09 -34.33303 -58.75102 5212 ft 272 kts 131°
2026-04-30 15:09 -34.35859 -58.71905 4930 ft 254 kts 135°
2026-04-30 15:10 -34.38153 -58.69109 4775 ft 232 kts 134°
2026-04-30 15:11 -34.42223 -58.64064 4119 ft 199 kts 133°
2026-04-30 15:11 -34.44178 -58.61636 3617 ft 198 kts 133°
2026-04-30 15:12 -34.46618 -58.58321 2906 ft 195 kts 122°
2026-04-30 15:13 -34.48072 -58.55678 2423 ft 185 kts 124°
2026-04-30 15:14 -34.50712 -58.50944 1678 ft 167 kts 122°
2026-04-30 15:14 -34.52640 -58.47485 998 ft 163 kts 122°
2026-04-30 15:16 -34.55586 -58.42185 38 ft 137 kts 123°
2026-04-30 15:17 -34.56398 -58.40676 28 ft 11 kts 58°
2026-04-30 15:18 -34.56169 -58.40887 25 ft 7 kts 294°
2026-04-30 15:19 -34.56064 -58.40890 29 ft 3 kts 38°